Location: Nürtingen
(48.6244°N, 9.3469°E)
Time: 19:04:53
(UTC+02:00)

N. Korean satellite - Visible Passes

Search period start: 20 October 2019 00:00
Search period end: 29 October 2019 23:00
Orbit: 455 x 508 km, 97.2° (Epoch: 20 October)

Date Brightness Start Highest point End Pass type
(mag) Time Alt. Az. Time Alt. Az. Time Alt. Az.
20 Oct 8.9 06:48:16 10° NNE 06:51:30 30° E 06:54:44 10° SSE visible
20 Oct 8.8 19:00:51 10° SSW 19:03:54 30° W 19:07:00 10° NNW visible
21 Oct 10.0 06:23:40 10° NE 06:26:01 16° E 06:28:23 10° SE visible
23 Oct 7.8 07:05:30 10° NNE 07:09:02 48° E 07:12:36 10° S visible
23 Oct 9.7 19:18:56 10° SW 19:21:28 19° W 19:24:03 10° NW visible
24 Oct 9.2 06:40:32 10° NE 06:43:37 25° E 06:46:42 10° SSE visible
24 Oct 8.3 18:52:47 10° SSW 18:56:00 37° W 18:59:16 10° NNW visible
25 Oct 10.2 06:16:10 10° ENE 06:18:07 14° E 06:20:04 10° ESE visible
26 Oct 6.8 07:22:51 10° NNE 07:26:31 80° ESE 07:30:13 10° S visible
26 Oct 10.2 19:37:31 10° WSW 19:39:04 12° W 19:40:36 10° WNW visible
27 Oct 8.3 05:57:41 10° NNE 06:01:09 39° E 06:04:39 10° SSE visible
27 Oct 9.3 18:10:41 10° SSW 18:13:31 23° W 18:16:24 10° NW visible
28 Oct 9.5 05:32:50 10° NE 05:35:42 21° E 05:38:35 10° SE visible
28 Oct 7.8 17:44:43 10° S 17:48:04 46° W 17:51:29 10° NNW visible
29 Oct 10.4 05:08:50 10° ENE 05:10:09 12° E 05:11:28 10° ESE visible
